Time,TemperatureF,DewpointF,PressureIn,WindDirection,WindDirectionDegrees,WindSpeedMPH,WindSpeedGustMPH,Humidity,HourlyPrecipIn,Conditions,Clouds,dailyrainin,SoftwareType,DateUTC
2013-02-26 00:00:00,35.5,33.7,30.37,SSE,163,0.0,0.0,93,0.00,OVC,,0.35,WeatherDisplay:10.37,2013-02-26 08:00:00,
2013-02-26 00:05:00,35.5,33.7,30.37,SSE,163,2.3,2.3,93,0.00,RA,,0.00,WeatherDisplay:10.37,2013-02-26 08:05:00,
2013-02-26 00:10:00,35.6,33.8,30.37,SSE,163,1.1,1.1,93,0.00,RA,,0.00,WeatherDisplay:10.37,2013-02-26 08:10:00,
2013-02-26 00:15:00,35.6,33.8,30.37,SSE,163,1.1,1.1,93,0.00,OVC,,0.00,WeatherDisplay:10.37,2013-02-26 08:15:00,
2013-02-26 00:20:00,35.7,33.9,30.37,SSE,163,0.0,0.0,93,0.00,OVC,,0.00,WeatherDisplay:10.37,2013-02-26 08:20:00,
2013-02-26 00:25:00,35.7,33.9,30.37,SSE,163,1.1,1.1,93,0.00,OVC,,0.00,WeatherDisplay:10.37,2013-02-26 08:25:00,
2013-02-26 00:30:00,35.6,33.8,30.37,SSE,163,0.0,0.3,93,0.00,OVC,,0.00,WeatherDisplay:10.37,2013-02-26 08:30:00,
2013-02-26 00:35:00,35.5,33.7,30.37,SSE,163,0.0,0.0,93,0.00,OVC,,0.00,WeatherDisplay:10.37,2013-02-26 08:35:00,
2013-02-26 00:40:00,35.4,33.6,30.37,SSE,163,1.1,1.1,93,0.00,OVC,,0.00,WeatherDisplay:10.37,2013-02-26 08:40:00,
2013-02-26 00:45:00,35.3,33.2,30.36,SSE,163,0.0,0.0,92,0.00,OVC,,0.00,WeatherDisplay:10.37,2013-02-26 08:45:00,
2013-02-26 00:50:00,35.1,33.0,30.36,SSE,163,2.0,2.0,92,0.00,OVC,,0.00,WeatherDisplay:10.37,2013-02-26 08:50:00,
2013-02-26 00:55:00,35.0,33.2,30.37,SSE,163,0.0,0.0,93,0.00,OVC,,0.00,WeatherDisplay:10.37,2013-02-26 08:55:00,
2013-02-26 01:00:00,34.9,33.1,30.37,SSE,163,0.0,0.0,93,0.00,OVC,,0.00,WeatherDisplay:10.37,2013-02-26 09:00:00,
2013-02-26 01:05:00,34.8,33.0,30.37,SSE,163,0.0,0.0,93,0.00,OVC,,0.00,WeatherDisplay:10.37,2013-02-26 09:05:00,
2013-02-26 01:10:00,34.8,33.0,30.37,SSE,163,0.0,0.0,93,0.00,OVC,,0.00,WeatherDisplay:10.37,2013-02-26 09:10:00,
2013-02-26 01:15:00,34.7,32.6,30.37,SSE,163,0.0,0.0,92,0.00,OVC,,0.00,WeatherDisplay:10.37,2013-02-26 09:15:00,
2013-02-26 01:20:00,34.7,32.9,30.37,SSE,163,2.3,0.0,93,0.00,OVC,,0.00,WeatherDisplay:10.37,2013-02-26 09:20:00,
2013-02-26 01:25:00,34.8,33.0,30.37,SSE,163,1.1,1.1,93,0.00,OVC,,0.00,WeatherDisplay:10.37,2013-02-26 09:25:00,
2013-02-26 01:30:00,34.8,33.0,30.37,SSE,163,1.0,0.0,93,0.00,OVC,,0.00,WeatherDisplay:10.37,2013-02-26 09:30:00,
2013-02-26 01:35:00,34.9,33.1,30.36,SSE,163,2.3,2.3,93,0.00,OVC,,0.00,WeatherDisplay:10.37,2013-02-26 09:35:00,
2013-02-26 01:40:00,35.0,33.2,30.36,SSE,163,2.0,2.0,93,0.00,OVC,,0.00,WeatherDisplay:10.37,2013-02-26 09:40:00,
2013-02-26 01:45:00,35.1,33.3,30.36,SSE,163,0.0,0.0,93,0.00,OVC,,0.00,WeatherDisplay:10.37,2013-02-26 09:45:00,
2013-02-26 01:50:00,35.2,33.4,30.36,SSE,163,1.1,0.0,93,0.00,OVC,,0.00,WeatherDisplay:10.37,2013-02-26 09:50:00,
2013-02-26 01:55:00,35.3,33.5,30.36,SSE,163,1.1,1.1,93,0.00,OVC,,0.00,WeatherDisplay:10.37,2013-02-26 09:55:00,
2013-02-26 02:00:00,35.4,33.6,30.36,SSE,163,0.0,0.0,93,0.00,OVC,,0.00,WeatherDisplay:10.37,2013-02-26 10:00:00,
2013-02-26 02:05:00,35.5,33.7,30.36,SSE,163,3.5,3.5,93,0.00,OVC,,0.00,WeatherDisplay:10.37,2013-02-26 10:05:00,
2013-02-26 02:10:00,35.5,33.7,30.37,SSE,163,2.3,2.3,93,0.00,OVC,,0.00,WeatherDisplay:10.37,2013-02-26 10:10:00,
2013-02-26 02:15:00,35.7,33.9,30.37,SSE,163,2.3,2.3,93,0.00,OVC,,0.00,WeatherDisplay:10.37,2013-02-26 10:15:00,
2013-02-26 02:20:00,35.7,33.9,30.37,SSE,163,1.1,1.1,93,0.00,OVC,,0.00,WeatherDisplay:10.37,2013-02-26 10:20:00,
2013-02-26 02:25:00,35.7,33.9,30.37,SSE,163,2.3,2.3,93,0.00,OVC,,0.00,WeatherDisplay:10.37,2013-02-26 10:25:00,
2013-02-26 02:30:00,35.7,33.9,30.37,SSE,163,0.0,0.0,93,0.00,OVC,,0.00,WeatherDisplay:10.37,2013-02-26 10:30:00,
2013-02-26 02:35:00,35.8,34.0,30.37,SSE,163,0.0,0.0,93,0.00,OVC,,0.00,WeatherDisplay:10.37,2013-02-26 10:35:00,
2013-02-26 02:40:00,35.8,34.0,30.37,SSE,163,0.0,0.5,93,0.00,OVC,,0.00,WeatherDisplay:10.37,2013-02-26 10:40:00,
2013-02-26 02:45:00,35.8,34.0,30.37,South,178,3.5,3.5,93,0.00,OVC,,0.00,WeatherDisplay:10.37,2013-02-26 10:45:00,
2013-02-26 02:50:00,35.8,33.7,30.37,SSE,166,3.5,3.5,92,0.00,OVC,,0.00,WeatherDisplay:10.37,2013-02-26 10:50:00,
2013-02-26 02:55:00,35.8,33.7,30.37,SSE,165,3.5,3.5,92,0.00,OVC,,0.00,WeatherDisplay:10.37,2013-02-26 10:55:00,
2013-02-26 03:00:00,35.8,33.7,30.37,South,169,3.5,3.5,92,0.00,OVC,,0.00,WeatherDisplay:10.37,2013-02-26 11:00:00,
2013-02-26 03:05:00,35.9,33.8,30.38,SSE,160,3.5,3.5,92,0.00,OVC,,0.00,WeatherDisplay:10.37,2013-02-26 11:05:00,
2013-02-26 03:10:00,35.9,33.8,30.38,SSE,159,5.8,5.8,92,0.00,OVC,,0.00,WeatherDisplay:10.37,2013-02-26 11:10:00,
2013-02-26 03:15:00,35.9,33.8,30.37,SSE,159,1.1,0.0,92,0.00,OVC,,0.00,WeatherDisplay:10.37,2013-02-26 11:15:00,
2013-02-26 03:20:00,35.9,33.8,30.37,South,177,4.0,4.0,92,0.00,OVC,,0.00,WeatherDisplay:10.37,2013-02-26 11:20:00,
2013-02-26 03:25:00,35.8,33.7,30.37,SSE,150,4.6,4.6,92,0.00,OVC,,0.00,WeatherDisplay:10.37,2013-02-26 11:25:00,
2013-02-26 03:30:00,35.9,33.8,30.37,SSE,150,3.5,3.5,92,0.00,OVC,,0.00,WeatherDisplay:10.37,2013-02-26 11:30:00,
2013-02-26 03:35:00,35.9,33.8,30.37,SSE,156,5.8,5.8,92,0.00,OVC,,0.00,WeatherDisplay:10.37,2013-02-26 11:35:00,
2013-02-26 03:40:00,35.9,33.8,30.37,SSE,152,6.9,6.9,92,0.00,OVC,,0.00,WeatherDisplay:10.37,2013-02-26 11:40:00,
2013-02-26 03:45:00,36.0,33.9,30.37,SSE,155,6.9,6.9,92,0.00,OVC,,0.00,WeatherDisplay:10.37,2013-02-26 11:45:00,
2013-02-26 03:50:00,36.0,33.9,30.37,SSE,150,6.9,6.9,92,0.00,OVC,,0.00,WeatherDisplay:10.37,2013-02-26 11:50:00,
2013-02-26 03:55:00,36.0,33.9,30.37,SSE,148,5.0,5.0,92,0.00,OVC,,0.00,WeatherDisplay:10.37,2013-02-26 11:55:00,
2013-02-26 04:00:00,36.1,34.0,30.37,SSE,147,3.5,3.5,92,0.00,OVC,,0.00,WeatherDisplay:10.37,2013-02-26 12:00:00,
2013-02-26 04:05:00,36.1,34.0,30.37,SSE,151,3.5,3.5,92,0.00,OVC,,0.00,WeatherDisplay:10.37,2013-02-26 12:05:00,
2013-02-26 04:10:00,36.0,33.9,30.37,SSE,159,4.0,4.0,92,0.00,OVC,,0.00,WeatherDisplay:10.37,2013-02-26 12:10:00,
2013-02-26 04:15:00,36.1,34.0,30.36,SSE,155,4.6,4.6,92,0.00,OVC,,0.00,WeatherDisplay:10.37,2013-02-26 12:15:00,
2013-02-26 04:20:00,36.0,33.9,30.36,SSE,155,2.3,2.3,92,0.00,OVC,,0.00,WeatherDisplay:10.37,2013-02-26 12:20:00,
2013-02-26 04:25:00,36.0,33.9,30.36,SE,135,3.5,3.5,92,0.00,OVC,,0.00,WeatherDisplay:10.37,2013-02-26 12:25:00,
2013-02-26 04:30:00,36.0,33.9,30.36,SSE,150,3.5,3.5,92,0.00,OVC,,0.00,WeatherDisplay:10.37,2013-02-26 12:30:00,
2013-02-26 04:35:00,35.9,33.5,30.36,SSE,150,3.5,3.5,91,0.00,OVC,,0.00,WeatherDisplay:10.37,2013-02-26 12:35:00,
2013-02-26 04:40:00,35.7,33.3,30.37,SSE,150,3.5,3.5,91,0.00,OVC,,0.00,WeatherDisplay:10.37,2013-02-26 12:40:00,
2013-02-26 04:45:00,35.6,33.2,30.37,SSE,150,2.3,0.0,91,0.00,OVC,,0.00,WeatherDisplay:10.37,2013-02-26 12:45:00,
2013-02-26 04:50:00,35.5,33.4,30.37,SSE,157,2.3,0.0,92,0.00,OVC,,0.00,WeatherDisplay:10.37,2013-02-26 12:50:00,
2013-02-26 04:55:00,35.4,33.0,30.37,East,88,1.0,0.0,91,0.00,OVC,,0.00,WeatherDisplay:10.37,2013-02-26 12:55:00,
2013-02-26 05:00:00,35.3,32.9,30.37,SSE,147,4.0,4.0,91,0.00,OVC,,0.00,WeatherDisplay:10.37,2013-02-26 13:00:00,
2013-02-26 05:05:00,35.2,33.1,30.38,South,177,3.5,3.5,92,0.00,OVC,,0.00,WeatherDisplay:10.37,2013-02-26 13:05:00,
2013-02-26 05:10:00,35.2,33.1,30.38,South,177,3.5,3.5,92,0.00,OVC,,0.00,WeatherDisplay:10.37,2013-02-26 13:10:00,
2013-02-26 05:15:00,35.1,33.0,30.38,South,177,3.5,3.5,92,0.00,OVC,,0.00,WeatherDisplay:10.37,2013-02-26 13:15:00,
2013-02-26 05:20:00,34.8,32.7,30.38,South,177,3.5,3.5,92,0.00,OVC,,0.00,WeatherDisplay:10.37,2013-02-26 13:20:00,
2013-02-26 05:25:00,34.5,32.4,30.38,South,178,3.5,3.5,92,0.00,OVC,,0.00,WeatherDisplay:10.37,2013-02-26 13:25:00,
2013-02-26 05:30:00,34.4,32.6,30.39,SSE,160,4.6,4.6,93,0.00,OVC,,0.00,WeatherDisplay:10.37,2013-02-26 13:30:00,
2013-02-26 05:35:00,34.4,32.6,30.39,SSE,159,3.5,3.5,93,0.00,OVC,,0.00,WeatherDisplay:10.37,2013-02-26 13:35:00,
2013-02-26 05:40:00,34.6,32.8,30.39,SSE,152,3.5,3.5,93,0.00,OVC,,0.00,WeatherDisplay:10.37,2013-02-26 13:40:00,
2013-02-26 05:45:00,34.7,32.9,30.38,SSE,153,5.0,5.0,93,0.00,OVC,,0.00,WeatherDisplay:10.37,2013-02-26 13:45:00,
2013-02-26 05:50:00,34.8,33.0,30.39,SSE,154,4.6,4.9,93,0.00,OVC,,0.00,WeatherDisplay:10.37,2013-02-26 13:50:00,
2013-02-26 05:55:00,35.0,33.2,30.39,SE,142,5.8,5.8,93,0.00,OVC,,0.00,WeatherDisplay:10.37,2013-02-26 13:55:00,
2013-02-26 06:00:00,35.0,33.2,30.39,SSE,160,4.6,4.6,93,0.00,OVC,,0.00,WeatherDisplay:10.37,2013-02-26 14:00:00,
2013-02-26 06:05:00,35.1,33.3,30.39,SSE,154,5.8,5.8,93,0.00,OVC,,0.00,WeatherDisplay:10.37,2013-02-26 14:05:00,
2013-02-26 06:10:00,35.1,33.5,30.39,SSE,162,6.9,6.9,94,0.00,OVC,,0.00,WeatherDisplay:10.37,2013-02-26 14:10:00,
2013-02-26 06:15:00,35.1,33.5,30.39,SSE,149,9.2,9.2,94,0.00,OVC,,0.00,WeatherDisplay:10.37,2013-02-26 14:15:00,
2013-02-26 06:20:00,35.2,33.6,30.39,SSE,152,6.9,6.9,94,0.00,OVC,,0.00,WeatherDisplay:10.37,2013-02-26 14:20:00,
2013-02-26 06:25:00,35.2,33.6,30.39,SE,144,3.5,3.5,94,0.00,OVC,,0.00,WeatherDisplay:10.37,2013-02-26 14:25:00,
2013-02-26 06:30:00,35.2,33.6,30.39,SSE,157,6.9,6.9,94,0.00,OVC,,0.00,WeatherDisplay:10.37,2013-02-26 14:30:00,
2013-02-26 06:35:00,35.3,33.7,30.39,SSE,151,7.0,7.0,94,0.00,OVC,,0.00,WeatherDisplay:10.37,2013-02-26 14:35:00,
2013-02-26 06:40:00,35.3,33.7,30.38,SE,145,5.0,5.0,94,0.00,OVC,,0.00,WeatherDisplay:10.37,2013-02-26 14:40:00,
2013-02-26 06:45:00,35.3,33.7,30.38,SSE,157,6.9,6.9,94,0.00,OVC,,0.00,WeatherDisplay:10.37,2013-02-26 14:45:00,
2013-02-26 06:50:00,35.3,33.7,30.38,SSE,149,5.8,5.8,94,0.00,OVC,,0.00,WeatherDisplay:10.37,2013-02-26 14:50:00,
2013-02-26 06:55:00,35.3,33.7,30.38,SSE,149,4.0,4.0,94,0.00,OVC,,0.00,WeatherDisplay:10.37,2013-02-26 14:55:00,
2013-02-26 07:00:00,35.3,33.7,30.38,SSE,149,3.5,0.0,94,0.00,OVC,,0.00,WeatherDisplay:10.37,2013-02-26 15:00:00,
2013-02-26 07:05:00,35.3,33.7,30.38,SSE,149,3.5,3.5,94,0.00,OVC,,0.00,WeatherDisplay:10.37,2013-02-26 15:05:00,
2013-02-26 07:10:00,35.4,33.8,30.38,SSE,149,3.5,3.5,94,0.00,OVC,,0.00,WeatherDisplay:10.37,2013-02-26 15:10:00,
2013-02-26 07:15:00,35.5,33.9,30.38,SSE,153,3.5,3.5,94,0.00,OVC,,0.00,WeatherDisplay:10.37,2013-02-26 15:15:00,
2013-02-26 07:20:00,35.6,34.0,30.37,ENE,74,3.5,3.5,94,0.00,OVC,,0.00,WeatherDisplay:10.37,2013-02-26 15:20:00,
2013-02-26 07:25:00,35.6,34.0,30.37,SSE,156,2.3,2.3,94,0.00,OVC,,0.00,WeatherDisplay:10.37,2013-02-26 15:25:00,
2013-02-26 07:30:00,35.5,33.9,30.37,SE,142,2.3,2.3,94,0.00,OVC,,0.00,WeatherDisplay:10.37,2013-02-26 15:30:00,
2013-02-26 07:35:00,35.5,33.9,30.37,SE,142,1.1,1.1,94,0.00,OVC,,0.00,WeatherDisplay:10.37,2013-02-26 15:35:00,
2013-02-26 07:40:00,35.4,33.6,30.38,SE,142,2.3,2.3,93,0.00,OVC,,0.00,WeatherDisplay:10.37,2013-02-26 15:40:00,
2013-02-26 07:45:00,35.3,33.5,30.38,SE,142,1.1,1.1,93,0.00,OVC,,0.00,WeatherDisplay:10.37,2013-02-26 15:45:00,
2013-02-26 07:50:00,35.2,33.4,30.37,SE,142,2.3,2.3,93,0.00,OVC,,0.00,WeatherDisplay:10.37,2013-02-26 15:50:00,
2013-02-26 07:55:00,35.2,33.4,30.37,SE,142,2.3,2.3,93,0.00,OVC,,0.00,WeatherDisplay:10.37,2013-02-26 15:55:00,
2013-02-26 08:00:00,35.2,33.4,30.37,SE,142,3.5,3.5,93,0.00,OVC,,0.00,WeatherDisplay:10.37,2013-02-26 16:00:00,
2013-02-26 08:05:00,35.3,33.5,30.37,SE,142,3.5,3.5,93,0.00,OVC,,0.00,WeatherDisplay:10.37,2013-02-26 16:05:00,
2013-02-26 08:10:00,35.4,33.6,30.37,South,171,3.5,3.5,93,0.00,OVC,,0.00,WeatherDisplay:10.37,2013-02-26 16:10:00,
2013-02-26 08:15:00,35.7,33.9,30.37,South,172,3.5,3.5,93,0.00,OVC,,0.00,WeatherDisplay:10.37,2013-02-26 16:15:00,
2013-02-26 08:20:00,35.9,34.1,30.37,SSE,157,5.8,5.8,93,0.00,OVC,,0.00,WeatherDisplay:10.37,2013-02-26 16:20:00,
2013-02-26 08:25:00,36.1,34.3,30.37,South,169,4.0,4.0,93,0.00,OVC,,0.00,WeatherDisplay:10.37,2013-02-26 16:25:00,
2013-02-26 08:30:00,36.4,34.6,30.37,South,171,4.0,4.0,93,0.00,OVC,,0.00,WeatherDisplay:10.37,2013-02-26 16:30:00,
2013-02-26 08:35:00,36.6,34.5,30.36,South,171,3.5,3.5,92,0.00,OVC,,0.00,WeatherDisplay:10.37,2013-02-26 16:35:00,
2013-02-26 08:40:00,36.7,34.6,30.36,South,171,2.3,0.0,92,0.00,OVC,,0.00,WeatherDisplay:10.37,2013-02-26 16:40:00,
2013-02-26 08:45:00,36.7,34.6,30.37,South,171,1.1,0.0,92,0.00,OVC,,0.00,WeatherDisplay:10.37,2013-02-26 16:45:00,
2013-02-26 08:50:00,36.6,34.5,30.38,South,171,2.3,2.3,92,0.00,OVC,,0.00,WeatherDisplay:10.37,2013-02-26 16:50:00,
2013-02-26 08:55:00,36.5,34.4,30.37,SW,234,2.3,2.3,92,0.00,OVC,,0.00,WeatherDisplay:10.37,2013-02-26 16:55:00,
2013-02-26 09:00:00,36.5,34.4,30.37,SW,234,2.0,2.0,92,0.00,OVC,,0.00,WeatherDisplay:10.37,2013-02-26 17:00:00,
2013-02-26 09:05:00,36.6,34.8,30.38,SW,234,2.3,2.3,93,0.00,OVC,,0.00,WeatherDisplay:10.37,2013-02-26 17:05:00,
2013-02-26 09:10:00,36.6,34.5,30.37,SW,234,0.0,0.0,92,0.00,OVC,,0.00,WeatherDisplay:10.37,2013-02-26 17:10:00,
2013-02-26 09:15:00,36.9,35.1,30.37,South,171,3.5,3.5,93,0.00,OVC,,0.00,WeatherDisplay:10.37,2013-02-26 17:15:00,
2013-02-26 09:20:00,37.2,35.4,30.37,SSW,192,3.5,3.5,93,0.00,OVC,,0.00,WeatherDisplay:10.37,2013-02-26 17:20:00,
2013-02-26 09:25:00,37.5,35.7,30.37,SSW,202,3.5,3.5,93,0.00,OVC,,0.00,WeatherDisplay:10.37,2013-02-26 17:25:00,
2013-02-26 09:30:00,37.7,35.9,30.37,SSW,202,1.1,1.1,93,0.00,OVC,,0.00,WeatherDisplay:10.37,2013-02-26 17:30:00,
2013-02-26 09:35:00,38.0,36.2,30.37,SSW,202,2.3,2.3,93,0.00,OVC,,0.00,WeatherDisplay:10.37,2013-02-26 17:35:00,
2013-02-26 09:41:00,38.1,36.3,30.36,SSW,202,4.0,4.0,93,0.00,OVC,,0.00,WeatherDisplay:10.37,2013-02-26 17:41:00,
2013-02-26 09:46:00,38.1,36.3,30.36,SSW,202,4.0,4.0,93,0.00,OVC,,0.00,WeatherDisplay:10.37,2013-02-26 17:46:00,
2013-02-26 09:51:00,37.9,35.8,30.36,SE,142,9.2,9.2,92,0.00,OVC,,0.00,WeatherDisplay:10.37,2013-02-26 17:51:00,
2013-02-26 09:56:00,37.9,35.8,30.36,SSW,200,11.5,11.5,92,0.00,OVC,,0.00,WeatherDisplay:10.37,2013-02-26 17:56:00,
2013-02-26 10:01:00,38.0,35.6,30.35,SSE,147,6.9,6.9,91,0.00,OVC,,0.00,WeatherDisplay:10.37,2013-02-26 18:01:00,
2013-02-26 10:06:00,38.4,36.0,30.35,SSE,161,9.0,9.0,91,0.00,OVC,,0.00,WeatherDisplay:10.37,2013-02-26 18:06:00,
2013-02-26 10:11:00,38.7,36.3,30.35,SSE,149,6.9,6.9,91,0.00,OVC,,0.00,WeatherDisplay:10.37,2013-02-26 18:11:00,
2013-02-26 10:16:00,38.8,36.1,30.35,SSE,166,6.9,6.9,90,0.00,OVC,,0.00,WeatherDisplay:10.37,2013-02-26 18:16:00,
2013-02-26 10:21:00,39.1,36.4,30.35,SSE,148,3.5,3.5,90,0.00,OVC,,0.00,WeatherDisplay:10.37,2013-02-26 18:21:00,
2013-02-26 10:26:00,39.4,36.7,30.35,SSE,163,6.9,6.9,90,0.00,OVC,,0.00,WeatherDisplay:10.37,2013-02-26 18:26:00,
2013-02-26 10:31:00,39.6,36.6,30.35,SSE,153,9.2,9.2,89,0.00,OVC,,0.00,WeatherDisplay:10.37,2013-02-26 18:31:00,
2013-02-26 10:36:00,39.4,36.4,30.35,SE,134,9.2,9.2,89,0.00,OVC,,0.00,WeatherDisplay:10.37,2013-02-26 18:36:00,
2013-02-26 10:41:00,39.3,36.0,30.35,South,178,11.5,11.5,88,0.00,OVC,,0.00,WeatherDisplay:10.37,2013-02-26 18:41:00,
2013-02-26 10:46:00,39.1,35.8,30.35,SE,145,9.2,9.2,88,0.00,OVC,,0.00,WeatherDisplay:10.37,2013-02-26 18:46:00,
2013-02-26 10:51:00,39.3,36.3,30.35,South,180,10.0,10.0,89,0.00,OVC,,0.00,WeatherDisplay:10.37,2013-02-26 18:51:00,
2013-02-26 10:56:00,39.1,36.1,30.35,South,175,11.5,11.5,89,0.00,OVC,,0.00,WeatherDisplay:10.37,2013-02-26 18:56:00,
2013-02-26 11:01:00,39.1,36.1,30.35,South,170,9.2,9.2,89,0.00,OVC,,0.00,WeatherDisplay:10.37,2013-02-26 19:01:00,
2013-02-26 11:06:00,38.8,36.1,30.35,South,178,11.5,11.5,90,0.00,OVC,,0.00,WeatherDisplay:10.37,2013-02-26 19:06:00,
2013-02-26 11:11:00,38.7,36.3,30.35,South,189,11.5,11.5,91,0.00,OVC,,0.00,WeatherDisplay:10.37,2013-02-26 19:11:00,
2013-02-26 11:16:00,38.6,36.2,30.35,SSE,165,11.5,11.5,91,0.00,OVC,,0.00,WeatherDisplay:10.37,2013-02-26 19:16:00,
2013-02-26 11:21:00,38.8,36.4,30.35,South,174,10.4,10.4,91,0.00,OVC,,0.00,WeatherDisplay:10.37,2013-02-26 19:21:00,
2013-02-26 11:26:00,38.9,36.5,30.35,South,169,6.9,6.9,91,0.00,OVC,,0.00,WeatherDisplay:10.37,2013-02-26 19:26:00,
2013-02-26 11:31:00,39.1,36.7,30.35,SSE,163,6.9,6.9,91,0.00,OVC,,0.00,WeatherDisplay:10.37,2013-02-26 19:31:00,
2013-02-26 11:36:00,38.9,36.5,30.36,SSE,162,11.5,11.5,91,0.00,OVC,,0.00,WeatherDisplay:10.37,2013-02-26 19:36:00,
2013-02-26 11:41:00,38.6,36.2,30.36,SSE,161,10.4,10.4,91,0.00,OVC,,0.00,WeatherDisplay:10.37,2013-02-26 19:41:00,
2013-02-26 11:46:00,38.6,36.5,30.35,South,189,9.2,9.2,92,0.00,OVC,,0.00,WeatherDisplay:10.37,2013-02-26 19:46:00,
2013-02-26 11:51:00,38.5,36.4,30.35,SSE,155,6.9,6.9,92,0.00,OVC,,0.00,WeatherDisplay:10.37,2013-02-26 19:51:00,
2013-02-26 11:56:00,38.5,36.4,30.34,SSE,164,11.5,11.5,92,0.00,OVC,,0.00,WeatherDisplay:10.37,2013-02-26 19:56:00,
2013-02-26 12:01:00,38.6,36.5,30.35,South,188,8.1,8.1,92,0.00,OVC,,0.00,WeatherDisplay:10.37,2013-02-26 20:01:00,
2013-02-26 12:06:00,38.7,36.6,30.34,SSE,155,11.5,11.5,92,0.00,OVC,,0.00,WeatherDisplay:10.37,2013-02-26 20:06:00,
2013-02-26 12:11:00,38.8,36.7,30.35,South,179,6.9,6.9,92,0.00,OVC,,0.00,WeatherDisplay:10.37,2013-02-26 20:11:00,
2013-02-26 12:16:00,38.9,36.8,30.35,SSW,202,10.4,10.4,92,0.00,OVC,,0.00,WeatherDisplay:10.37,2013-02-26 20:16:00,
2013-02-26 12:21:00,39.0,36.9,30.34,SSE,153,9.2,9.2,92,0.00,OVC,,0.00,WeatherDisplay:10.37,2013-02-26 20:21:00,
2013-02-26 12:26:00,39.0,36.6,30.35,SSE,167,12.7,12.7,91,0.00,OVC,,0.00,WeatherDisplay:10.37,2013-02-26 20:26:00,
2013-02-26 12:31:00,39.1,36.7,30.34,South,191,11.5,11.5,91,0.00,OVC,,0.00,WeatherDisplay:10.37,2013-02-26 20:31:00,
2013-02-26 12:36:00,39.3,36.9,30.34,SSE,167,10.4,10.4,91,0.00,OVC,,0.00,WeatherDisplay:10.37,2013-02-26 20:36:00,
2013-02-26 12:41:00,39.9,37.5,30.33,SE,138,11.5,11.5,91,0.00,OVC,,0.00,WeatherDisplay:10.37,2013-02-26 20:41:00,
2013-02-26 12:46:00,40.4,37.7,30.32,SE,134,12.7,12.7,90,0.00,OVC,,0.00,WeatherDisplay:10.37,2013-02-26 20:46:00,
2013-02-26 12:51:00,40.8,37.8,30.32,SSE,153,18.4,18.4,89,0.00,OVC,,0.00,WeatherDisplay:10.37,2013-02-26 20:51:00,
2013-02-26 12:56:00,41.1,37.5,30.31,SE,145,13.8,13.8,87,0.00,OVC,,0.00,WeatherDisplay:10.37,2013-02-26 20:56:00,
2013-02-26 13:01:00,41.2,37.3,30.30,SSE,167,12.7,12.7,86,0.00,OVC,,0.00,WeatherDisplay:10.37,2013-02-26 21:01:00,
2013-02-26 13:06:00,41.6,37.4,30.30,SE,140,13.8,13.8,85,0.00,OVC,,0.00,WeatherDisplay:10.37,2013-02-26 21:06:00,
2013-02-26 13:11:00,41.8,37.6,30.30,SE,144,16.1,16.1,85,0.00,OVC,,0.00,WeatherDisplay:10.37,2013-02-26 21:11:00,
2013-02-26 13:16:00,42.0,37.2,30.30,ESE,109,11.5,11.5,83,0.00,OVC,,0.00,WeatherDisplay:10.37,2013-02-26 21:16:00,
2013-02-26 13:21:00,42.0,36.3,30.30,SE,134,17.3,17.3,80,0.00,OVC,,0.00,WeatherDisplay:10.37,2013-02-26 21:21:00,
2013-02-26 13:26:00,42.0,36.6,30.30,SE,130,17.3,17.3,81,0.00,OVC,,0.00,WeatherDisplay:10.37,2013-02-26 21:26:00,
2013-02-26 13:31:00,42.2,37.1,30.29,South,190,8.1,8.1,82,0.00,OVC,,0.00,WeatherDisplay:10.37,2013-02-26 21:31:00,
2013-02-26 13:36:00,42.3,36.9,30.29,SSE,156,19.6,19.6,81,0.00,OVC,,0.00,WeatherDisplay:10.37,2013-02-26 21:36:00,
2013-02-26 13:41:00,42.3,36.6,30.29,South,178,11.5,11.5,80,0.00,OVC,,0.00,WeatherDisplay:10.37,2013-02-26 21:41:00,
2013-02-26 13:46:00,42.3,36.6,30.29,SSE,147,12.7,12.7,80,0.00,OVC,,0.00,WeatherDisplay:10.37,2013-02-26 21:46:00,
2013-02-26 13:51:00,42.6,36.5,30.29,SE,142,12.7,12.7,79,0.00,OVC,,0.00,WeatherDisplay:10.37,2013-02-26 21:51:00,
2013-02-26 13:56:00,43.7,37.3,30.28,SE,139,11.5,11.5,78,0.00,OVC,,0.00,WeatherDisplay:10.37,2013-02-26 21:56:00,
2013-02-26 14:01:00,43.8,37.1,30.28,South,190,13.8,13.8,77,0.00,OVC,,0.00,WeatherDisplay:10.37,2013-02-26 22:01:00,
2013-02-26 14:06:00,44.1,36.7,30.28,SSE,147,19.0,19.0,75,0.00,OVC,,0.00,WeatherDisplay:10.37,2013-02-26 22:06:00,
2013-02-26 14:11:00,44.0,36.2,30.27,SSE,168,19.6,19.6,74,0.00,OVC,,0.00,WeatherDisplay:10.37,2013-02-26 22:11:00,
2013-02-26 14:16:00,44.2,36.4,30.27,SSW,198,17.3,17.3,74,0.00,OVC,,0.00,WeatherDisplay:10.37,2013-02-26 22:16:00,
2013-02-26 14:21:00,44.1,36.0,30.27,ESE,119,18.4,18.4,73,0.00,OVC,,0.00,WeatherDisplay:10.37,2013-02-26 22:21:00,
2013-02-26 14:26:00,44.1,36.3,30.26,South,177,13.8,13.8,74,0.00,OVC,,0.00,WeatherDisplay:10.37,2013-02-26 22:26:00,
2013-02-26 14:31:00,44.4,36.3,30.27,SE,144,13.8,13.8,73,0.00,OVC,,0.00,WeatherDisplay:10.37,2013-02-26 22:31:00,
2013-02-26 14:36:00,44.6,36.5,30.27,SSE,155,9.2,9.2,73,0.00,OVC,,0.00,WeatherDisplay:10.37,2013-02-26 22:36:00,
2013-02-26 14:41:00,44.7,36.2,30.27,ESE,107,11.0,11.0,72,0.00,OVC,,0.00,WeatherDisplay:10.37,2013-02-26 22:41:00,
2013-02-26 14:46:00,44.9,36.1,30.27,ESE,105,11.5,11.5,71,0.00,OVC,,0.00,WeatherDisplay:10.37,2013-02-26 22:46:00,
2013-02-26 14:51:00,44.7,35.5,30.26,SSE,147,13.8,13.8,70,0.00,OVC,,0.00,WeatherDisplay:10.37,2013-02-26 22:51:00,
2013-02-26 14:56:00,44.6,35.1,30.26,ESE,115,11.5,11.5,69,0.00,OVC,,0.00,WeatherDisplay:10.37,2013-02-26 22:56:00,
2013-02-26 15:01:00,44.2,34.7,30.27,South,188,12.7,12.7,69,0.00,OVC,,0.00,WeatherDisplay:10.37,2013-02-26 23:01:00,
2013-02-26 15:06:00,44.1,35.6,30.27,SE,145,15.0,15.0,72,0.00,OVC,,0.00,WeatherDisplay:10.37,2013-02-26 23:06:00,
2013-02-26 15:11:00,44.2,35.0,30.27,SSE,150,9.2,9.2,70,0.00,OVC,,0.00,WeatherDisplay:10.37,2013-02-26 23:11:00,
2013-02-26 15:16:00,44.1,34.9,30.27,SSW,195,15.0,15.0,70,0.00,OVC,,0.00,WeatherDisplay:10.37,2013-02-26 23:16:00,
2013-02-26 15:21:00,43.8,35.0,30.28,SSE,155,11.5,11.5,71,0.00,OVC,,0.00,WeatherDisplay:10.37,2013-02-26 23:21:00,
2013-02-26 15:26:00,44.0,35.2,30.28,SSW,197,8.0,8.0,71,0.00,OVC,,0.00,WeatherDisplay:10.37,2013-02-26 23:26:00,
2013-02-26 15:31:00,44.2,35.0,30.28,SSW,205,13.8,13.8,70,0.00,OVC,,0.00,WeatherDisplay:10.37,2013-02-26 23:31:00,
2013-02-26 15:36:00,44.2,34.7,30.28,South,169,15.0,15.0,69,0.00,OVC,,0.00,WeatherDisplay:10.37,2013-02-26 23:36:00,
2013-02-26 15:41:00,44.0,34.1,30.28,South,171,12.7,12.7,68,0.00,OVC,,0.00,WeatherDisplay:10.37,2013-02-26 23:41:00,
2013-02-26 15:46:00,43.9,34.4,30.27,SSE,162,6.9,6.9,69,0.00,OVC,,0.00,WeatherDisplay:10.37,2013-02-26 23:46:00,
2013-02-26 15:51:00,43.9,34.7,30.27,SSE,167,11.5,11.5,70,0.00,OVC,,0.00,WeatherDisplay:10.37,2013-02-26 23:51:00,
2013-02-26 15:56:00,43.7,34.9,30.27,SW,214,9.2,9.2,71,0.00,OVC,,0.00,WeatherDisplay:10.37,2013-02-26 23:56:00,
2013-02-26 16:01:00,43.6,34.8,30.27,South,189,11.5,11.5,71,0.00,OVC,,0.00,WeatherDisplay:10.37,2013-02-27 00:01:00,
2013-02-26 16:06:00,43.6,34.8,30.27,South,184,9.2,9.2,71,0.00,OVC,,0.00,WeatherDisplay:10.37,2013-02-27 00:06:00,
2013-02-26 16:11:00,43.6,34.8,30.27,SSE,159,4.6,4.6,71,0.00,OVC,,0.00,WeatherDisplay:10.37,2013-02-27 00:11:00,
2013-02-26 16:16:00,43.6,34.8,30.28,South,175,5.8,5.8,71,0.00,OVC,,0.00,WeatherDisplay:10.37,2013-02-27 00:16:00,
2013-02-26 16:21:00,43.5,34.4,30.27,SSE,163,4.6,4.6,70,0.00,OVC,,0.00,WeatherDisplay:10.37,2013-02-27 00:21:00,
2013-02-26 16:26:00,43.5,34.7,30.27,SSE,159,6.9,6.9,71,0.00,OVC,,0.00,WeatherDisplay:10.37,2013-02-27 00:26:00,
2013-02-26 16:31:00,43.4,34.3,30.28,South,182,5.0,5.0,70,0.00,OVC,,0.00,WeatherDisplay:10.37,2013-02-27 00:31:00,
2013-02-26 16:36:00,43.3,34.5,30.27,South,186,3.5,3.5,71,0.00,OVC,,0.00,WeatherDisplay:10.37,2013-02-27 00:36:00,
2013-02-26 16:41:00,43.3,34.5,30.27,SSE,167,3.5,3.5,71,0.00,OVC,,0.00,WeatherDisplay:10.37,2013-02-27 00:41:00,
2013-02-26 16:46:00,43.2,34.4,30.27,SSE,150,4.6,4.6,71,0.00,OVC,,0.00,WeatherDisplay:10.37,2013-02-27 00:46:00,
2013-02-26 16:51:00,43.1,34.3,30.27,SSE,150,2.3,2.3,71,0.00,OVC,,0.00,WeatherDisplay:10.37,2013-02-27 00:51:00,
2013-02-26 16:56:00,43.1,34.7,30.27,SSE,150,2.3,2.3,72,0.00,OVC,,0.00,WeatherDisplay:10.37,2013-02-27 00:56:00,
2013-02-26 17:01:00,43.0,34.2,30.28,SSE,151,2.3,2.3,71,0.00,OVC,,0.00,WeatherDisplay:10.37,2013-02-27 01:01:00,
2013-02-26 17:06:00,43.0,34.6,30.27,SSE,150,2.3,2.3,72,0.00,OVC,,0.00,WeatherDisplay:10.37,2013-02-27 01:06:00,
2013-02-26 17:11:00,43.0,34.9,30.27,SSE,150,2.3,2.3,73,0.00,OVC,,0.00,WeatherDisplay:10.37,2013-02-27 01:11:00,
2013-02-26 17:16:00,43.0,35.3,30.27,SSE,150,0.0,0.0,74,0.00,OVC,,0.00,WeatherDisplay:10.37,2013-02-27 01:16:00,
2013-02-26 17:21:00,42.8,35.1,30.26,SSE,150,4.6,4.6,74,0.00,OVC,,0.00,WeatherDisplay:10.37,2013-02-27 01:21:00,
2013-02-26 17:26:00,42.7,35.3,30.25,SSE,151,3.5,3.5,75,0.00,OVC,,0.00,WeatherDisplay:10.37,2013-02-27 01:26:00,
2013-02-26 17:31:00,42.5,35.1,30.25,SE,140,4.6,4.6,75,0.00,OVC,,0.00,WeatherDisplay:10.37,2013-02-27 01:31:00,
2013-02-26 17:36:00,42.5,35.1,30.25,SSE,149,5.8,5.8,75,0.00,OVC,,0.00,WeatherDisplay:10.37,2013-02-27 01:36:00,
2013-02-26 17:41:00,42.5,34.5,30.25,SSE,158,8.1,8.1,73,0.00,OVC,,0.00,WeatherDisplay:10.37,2013-02-27 01:41:00,
2013-02-26 17:46:00,42.5,34.5,30.25,SE,142,11.5,11.5,73,0.00,OVC,,0.00,WeatherDisplay:10.37,2013-02-27 01:46:00,
2013-02-26 17:51:00,42.5,34.1,30.25,SSE,148,8.1,8.1,72,0.00,OVC,,0.00,WeatherDisplay:10.37,2013-02-27 01:51:00,
2013-02-26 17:56:00,42.5,34.5,30.25,SE,136,10.4,10.4,73,0.00,OVC,,0.00,WeatherDisplay:10.37,2013-02-27 01:56:00,
2013-02-26 18:01:00,42.5,34.5,30.25,ESE,116,3.5,3.5,73,0.00,OVC,,0.00,WeatherDisplay:10.37,2013-02-27 02:01:00,
2013-02-26 18:06:00,42.4,34.4,30.26,SSE,155,4.0,4.0,73,0.00,OVC,,0.00,WeatherDisplay:10.37,2013-02-27 02:06:00,
2013-02-26 18:11:00,42.4,34.4,30.26,SSE,148,5.8,5.8,73,0.00,OVC,,0.00,WeatherDisplay:10.37,2013-02-27 02:11:00,
2013-02-26 18:16:00,42.4,34.7,30.25,SE,140,10.4,10.4,74,0.00,OVC,,0.00,WeatherDisplay:10.37,2013-02-27 02:16:00,
2013-02-26 18:22:00,42.3,34.6,30.25,SE,136,10.4,10.4,74,0.00,OVC,,0.00,WeatherDisplay:10.37,2013-02-27 02:22:00,
2013-02-26 18:27:00,42.4,34.0,30.25,ESE,123,13.8,13.8,72,0.00,OVC,,0.00,WeatherDisplay:10.37,2013-02-27 02:27:00,
2013-02-26 18:32:00,42.5,34.5,30.25,SSE,161,10.4,10.4,73,0.00,OVC,,0.00,WeatherDisplay:10.37,2013-02-27 02:32:00,
2013-02-26 18:37:00,42.5,34.5,30.25,SSE,150,10.4,10.4,73,0.00,OVC,,0.00,WeatherDisplay:10.37,2013-02-27 02:37:00,
2013-02-26 18:42:00,42.4,34.4,30.25,SSE,160,10.0,10.0,73,0.00,OVC,,0.00,WeatherDisplay:10.37,2013-02-27 02:42:00,
2013-02-26 18:47:00,42.5,34.5,30.25,SSE,155,13.8,13.8,73,0.00,OVC,,0.00,WeatherDisplay:10.37,2013-02-27 02:47:00,
2013-02-26 18:52:00,42.5,34.5,30.25,SE,144,11.5,11.5,73,0.00,OVC,,0.00,WeatherDisplay:10.37,2013-02-27 02:52:00,
2013-02-26 18:57:00,42.5,34.5,30.24,ESE,111,10.4,10.4,73,0.00,OVC,,0.00,WeatherDisplay:10.37,2013-02-27 02:57:00,
2013-02-26 19:02:00,42.5,34.8,30.24,SE,146,6.0,6.0,74,0.00,OVC,,0.00,WeatherDisplay:10.37,2013-02-27 03:02:00,
2013-02-26 19:07:00,42.4,34.7,30.25,South,178,11.5,11.5,74,0.00,OVC,,0.00,WeatherDisplay:10.37,2013-02-27 03:07:00,
2013-02-26 19:12:00,42.4,34.4,30.25,SE,146,12.7,12.7,73,0.00,OVC,,0.00,WeatherDisplay:10.37,2013-02-27 03:12:00,
2013-02-26 19:17:00,42.4,34.7,30.25,SE,138,11.5,11.5,74,0.00,OVC,,0.00,WeatherDisplay:10.37,2013-02-27 03:17:00,
2013-02-26 19:22:00,42.4,34.7,30.25,ESE,121,9.2,9.2,74,0.00,OVC,,0.00,WeatherDisplay:10.37,2013-02-27 03:22:00,
2013-02-26 19:27:00,42.3,34.9,30.25,SE,139,12.0,12.0,75,0.00,OVC,,0.00,WeatherDisplay:10.37,2013-02-27 03:27:00,
2013-02-26 19:32:00,42.3,34.9,30.25,SE,134,13.8,13.8,75,0.00,OVC,,0.00,WeatherDisplay:10.37,2013-02-27 03:32:00,
2013-02-26 19:37:00,42.3,35.3,30.25,SE,144,11.5,11.5,76,0.00,OVC,,0.00,WeatherDisplay:10.37,2013-02-27 03:37:00,
2013-02-26 19:42:00,42.3,35.3,30.25,South,174,10.4,10.4,76,0.00,OVC,,0.00,WeatherDisplay:10.37,2013-02-27 03:42:00,
2013-02-26 19:47:00,42.3,34.9,30.25,SE,138,14.0,14.0,75,0.00,OVC,,0.00,WeatherDisplay:10.37,2013-02-27 03:47:00,
2013-02-26 19:52:00,42.3,34.9,30.25,SE,132,11.5,11.5,75,0.00,OVC,,0.00,WeatherDisplay:10.37,2013-02-27 03:52:00,
2013-02-26 19:57:00,42.3,34.9,30.25,SSE,149,10.4,10.4,75,0.00,OVC,,0.00,WeatherDisplay:10.37,2013-02-27 03:57:00,
2013-02-26 20:02:00,42.4,35.0,30.25,SE,128,12.7,12.7,75,0.00,OVC,,0.00,WeatherDisplay:10.37,2013-02-27 04:02:00,
2013-02-26 20:07:00,42.2,35.2,30.25,South,173,7.0,7.0,76,0.00,OVC,,0.00,WeatherDisplay:10.37,2013-02-27 04:07:00,
2013-02-26 20:12:00,42.2,35.2,30.25,SE,142,11.5,11.5,76,0.00,OVC,,0.00,WeatherDisplay:10.37,2013-02-27 04:12:00,
2013-02-26 20:17:00,42.2,35.2,30.25,SE,132,9.2,9.2,76,0.00,OVC,,0.00,WeatherDisplay:10.37,2013-02-27 04:17:00,
2013-02-26 20:22:00,42.2,35.2,30.24,SSE,152,13.8,13.8,76,0.00,OVC,,0.00,WeatherDisplay:10.37,2013-02-27 04:22:00,
2013-02-26 20:27:00,42.3,34.6,30.24,SE,133,12.7,12.7,74,0.00,OVC,,0.00,WeatherDisplay:10.37,2013-02-27 04:27:00,
2013-02-26 20:32:00,42.4,34.7,30.25,SSE,161,10.4,10.4,74,0.00,OVC,,0.00,WeatherDisplay:10.37,2013-02-27 04:32:00,
2013-02-26 20:37:00,42.5,34.1,30.25,SE,136,13.8,13.8,72,0.00,OVC,,0.00,WeatherDisplay:10.37,2013-02-27 04:37:00,
2013-02-26 20:42:00,42.7,34.3,30.24,SSE,150,13.0,13.0,72,0.00,OVC,,0.00,WeatherDisplay:10.37,2013-02-27 04:42:00,
2013-02-26 20:47:00,42.8,34.0,30.24,SSE,156,11.5,11.5,71,0.00,OVC,,0.00,WeatherDisplay:10.37,2013-02-27 04:47:00,
2013-02-26 20:52:00,42.9,34.1,30.24,SSE,149,9.2,9.2,71,0.00,OVC,,0.00,WeatherDisplay:10.37,2013-02-27 04:52:00,
2013-02-26 20:57:00,43.1,34.0,30.24,SSE,160,15.0,15.0,70,0.00,OVC,,0.00,WeatherDisplay:10.37,2013-02-27 04:57:00,
2013-02-26 21:00:00,43.1,34.0,30.24,SSE,148,12.7,12.7,70,0.00,OVC,,0.00,WeatherDisplay:10.37,2013-02-27 05:00:00,
2013-02-26 21:05:00,43.1,34.0,30.24,SE,141,13.8,13.8,70,0.00,OVC,,0.00,WeatherDisplay:10.37,2013-02-27 05:05:00,
2013-02-26 21:10:00,43.1,34.3,30.24,SSE,148,12.7,12.7,71,0.00,OVC,,0.00,WeatherDisplay:10.37,2013-02-27 05:10:00,
2013-02-26 21:15:00,43.2,34.1,30.24,ESE,116,15.0,15.0,70,0.00,OVC,,0.00,WeatherDisplay:10.37,2013-02-27 05:15:00,
2013-02-26 21:20:00,43.2,34.1,30.24,SE,134,13.0,13.0,70,0.00,OVC,,0.00,WeatherDisplay:10.37,2013-02-27 05:20:00,
2013-02-26 21:25:00,43.3,34.5,30.24,SE,142,15.0,15.0,71,0.00,OVC,,0.00,WeatherDisplay:10.37,2013-02-27 05:25:00,
2013-02-26 21:30:00,43.4,34.6,30.24,SSE,165,17.3,17.3,71,0.00,OVC,,0.00,WeatherDisplay:10.37,2013-02-27 05:30:00,
2013-02-26 21:35:00,43.4,34.6,30.24,South,169,13.8,13.8,71,0.00,OVC,,0.00,WeatherDisplay:10.37,2013-02-27 05:35:00,
2013-02-26 21:40:00,43.4,34.6,30.24,SSE,150,11.5,11.5,71,0.00,OVC,,0.00,WeatherDisplay:10.37,2013-02-27 05:40:00,
2013-02-26 21:45:00,43.5,34.4,30.24,SSE,157,14.0,14.0,70,0.00,OVC,,0.00,WeatherDisplay:10.37,2013-02-27 05:45:00,
2013-02-26 21:50:00,43.5,34.7,30.24,SSE,154,12.7,12.7,71,0.00,OVC,,0.00,WeatherDisplay:10.37,2013-02-27 05:50:00,
2013-02-26 21:55:00,43.6,34.8,30.24,South,169,16.1,16.1,71,0.00,OVC,,0.00,WeatherDisplay:10.37,2013-02-27 05:55:00,
2013-02-26 22:00:00,43.6,34.8,30.24,SSE,167,13.8,13.8,71,0.00,OVC,,0.00,WeatherDisplay:10.37,2013-02-27 06:00:00,
2013-02-26 22:05:00,43.6,35.2,30.25,SSE,158,11.5,11.5,72,0.00,OVC,,0.00,WeatherDisplay:10.37,2013-02-27 06:05:00,
2013-02-26 22:10:00,43.6,35.5,30.25,SSE,156,11.5,11.5,73,0.00,OVC,,0.00,WeatherDisplay:10.37,2013-02-27 06:10:00,
2013-02-26 22:15:00,43.5,35.4,30.25,SE,133,16.1,16.1,73,0.00,OVC,,0.00,WeatherDisplay:10.37,2013-02-27 06:15:00,
2013-02-26 22:20:00,43.4,35.3,30.25,SSE,156,11.5,11.5,73,0.00,OVC,,0.00,WeatherDisplay:10.37,2013-02-27 06:20:00,
2013-02-26 22:25:00,43.3,35.6,30.25,SE,141,16.1,16.1,74,0.00,OVC,,0.00,WeatherDisplay:10.37,2013-02-27 06:25:00,
2013-02-26 22:30:00,43.3,35.6,30.25,SE,130,6.9,6.9,74,0.00,OVC,,0.00,WeatherDisplay:10.37,2013-02-27 06:30:00,
2013-02-26 22:35:00,43.3,35.6,30.26,SE,140,11.5,11.5,74,0.00,OVC,,0.00,WeatherDisplay:10.37,2013-02-27 06:35:00,
2013-02-26 22:40:00,43.3,35.9,30.26,SE,144,11.5,11.5,75,0.00,OVC,,0.00,WeatherDisplay:10.37,2013-02-27 06:40:00,
2013-02-26 22:45:00,43.3,35.9,30.26,SE,137,11.5,11.5,75,0.00,OVC,,0.00,WeatherDisplay:10.37,2013-02-27 06:45:00,
2013-02-26 22:50:00,43.2,35.8,30.26,SE,144,12.7,12.7,75,0.00,OVC,,0.00,WeatherDisplay:10.37,2013-02-27 06:50:00,
2013-02-26 22:55:00,43.2,36.1,30.25,South,170,11.5,11.5,76,0.00,OVC,,0.00,WeatherDisplay:10.37,2013-02-27 06:55:00,
2013-02-26 23:00:00,43.1,36.0,30.25,South,177,13.8,13.8,76,0.00,OVC,,0.00,WeatherDisplay:10.37,2013-02-27 07:00:00,
2013-02-26 23:05:00,43.0,36.3,30.25,SSE,149,12.7,12.7,77,0.00,OVC,,0.00,WeatherDisplay:10.37,2013-02-27 07:05:00,
2013-02-26 23:10:00,42.9,36.2,30.26,SE,144,11.5,11.5,77,0.00,OVC,,0.00,WeatherDisplay:10.37,2013-02-27 07:10:00,
2013-02-26 23:15:00,42.9,36.2,30.26,SSE,149,4.6,4.6,77,0.00,OVC,,0.00,WeatherDisplay:10.37,2013-02-27 07:15:00,
2013-02-26 23:20:00,42.8,36.4,30.25,SE,140,6.9,6.9,78,0.00,OVC,,0.00,WeatherDisplay:10.37,2013-02-27 07:20:00,
2013-02-26 23:25:00,42.7,36.3,30.26,East,97,10.4,10.4,78,0.00,OVC,,0.00,WeatherDisplay:10.37,2013-02-27 07:25:00,
2013-02-26 23:30:00,42.7,36.3,30.26,SSE,153,11.5,11.5,78,0.00,OVC,,0.00,WeatherDisplay:10.37,2013-02-27 07:30:00,
2013-02-26 23:35:00,42.8,36.4,30.26,SE,124,4.6,4.6,78,0.00,OVC,,0.00,WeatherDisplay:10.37,2013-02-27 07:35:00,
2013-02-26 23:40:00,42.8,36.1,30.26,SE,135,10.4,10.4,77,0.00,OVC,,0.00,WeatherDisplay:10.37,2013-02-27 07:40:00,
2013-02-26 23:45:00,42.9,36.2,30.26,SE,146,11.5,11.5,77,0.00,OVC,,0.00,WeatherDisplay:10.37,2013-02-27 07:45:00,
2013-02-26 23:50:00,42.9,36.2,30.25,SSE,162,9.0,9.0,77,0.00,OVC,,0.00,WeatherDisplay:10.37,2013-02-27 07:50:00,
2013-02-26 23:55:00,42.9,36.2,30.25,SSE,154,11.5,11.5,77,0.00,OVC,,0.00,WeatherDisplay:10.37,2013-02-27 07:55:00,